Location: Hopville
(44.8032°N, 123.1329°W)
Time: 16:35:50
(UTC+00:00)

Cosmos 2278 Rocket - Pass Details

Date: 24 January 2021
Orbit: 840 x 847 km, 71.0° (Epoch: 28 February)

Event Time Altitude Azimuth Distance (km) Brightness Sun altitude
Exits shadow 14:27:46 18° 281° (W) 1,990 3.5 -12.8°
Maximum altitude 14:29:19 20° 260° (W) 1,884 3.5 -12.5°
Drops below altitude 10° 14:33:14 10° 216° (SW) 2,461 4.4 -11.8°
Sets 14:36:18 0° 200° (SSW) 3,390 5.3 -11.3°
